Location: Krasnoyarskiy
(51.1133°N, 71.6497°E)
Time: 22:58:46
(UTC+00:00)

SJ-12 - Pass Details

Date: 27 September 2022
Orbit: 563 x 579 km, 97.7° (Epoch: 03 December)

Event Time Altitude Azimuth Distance (km) Brightness Sun altitude
Rises 00:22:20 0° 14° (NNE) 2,785 7.7 -7.8°
Reaches altitude 10° 00:24:30 10° 16° (NNE) 1,885 6.9 -7.5°
Maximum altitude 00:28:35 77° 102° (ESE) 594 4.1 -6.8°
Drops below altitude 10° 00:32:40 10° 190° (S) 1,881 6.4 -6.2°
Sets 00:34:49 0° 192° (SSW) 2,777 7.2 -5.9°
